Search your local weather  

 

Hazardous Weather Conditions

No active alerts for HOUSTON, TEXAS

Current Conditions: HOUSTON, TEXAS

Overcast


81.0 F

Last Updated on May 21 2022, 3:53 am CDT
Humidity: 79%
Wind Speed: S 9.2 mph
Barometer 29.78 in
Dewpoint: 73.9 F
Visibility: 10.00 mi
Precip: --
Heat Index: 86 F
Wind Chill: NA
Current conditions at:

Houston Intercontinental Airport, TX (KIAH)

Lat: 29.9844 Lon: -95.36074

Local Radar Image active severe weather and emergency alerts image image weather storm and storm spotter reports image weather observation monitoring service image
Local
Radar
Active
Alerts
Storm Reports Weather
Monitoring

5 Day Forecast for HOUSTON, TEXAS (77001)

Saturday

Mostly Cloudy

High 91 °F
Saturday
Night
Chance of T-storms

Low 75 °F
Sunday

T-storms Likely

High 85 °F
Sunday
Night
Isolated T-storm

Low 73 °F
Monday

Chance of T-storms

High 83 °F
Monday
Night
Chance of T-storms

Low 74 °F
Tuesday

T-storms Likely

High 83 °F
Tuesday
Night
Chance of T-storms

Low 75 °F
Wednesday

Chance of T-storms

High 85 °F

Sign-up For Email & Text Message Weather Alert Notification Services



Advertise Here

Observation History for HOUSTON, TEXAS


Time Wind
(mph)
Vis
(mi)
Weather Precip (in) Temperature (F) Relative
Humidity
Wind
Chill
(F)
Heat
Index
(F)
Pressure
Air Dwpt altimeter
(in)
sea level
(mb)
3:53 am CDT S 9.2 10.00 Overcast -- 81.0 73.9 79% NA 86 29.78 1008.3
2:53 am CDT S 8.1 10.00 Mostly Cloudy -- 82.0 73.9 77% NA 88 29.79 1008.7
1:53 am CDT SE 12.7 10.00 Overcast -- 81.0 73.9 79% NA 86 29.77 1008.0
12:53 am CDT S 11.5 10.00 Mostly Cloudy -- 82.0 73.9 77% NA 88 29.78 1008.1
11:53 pm CDT SE 15.0 10.00 Mostly Cloudy -- 82.0 75.0 79% NA 89 29.75 1007.2
10:53 pm CDT S 16.1 G 27.6 10.00 Mostly Cloudy -- 83.0 73.9 74% NA 90 29.75 1007.1
9:53 pm CDT SE 23.0 G 28.8 7.00 Mostly Cloudy and Breezy -- 82.0 73.9 77% NA 88 29.75 1007.1
8:53 pm CDT S 12.7 10.00 Mostly Cloudy -- 83.0 73.0 72% NA 89 29.75 1007.2
7:53 pm CDT SE 19.6 G 25.3 10.00 Mostly Cloudy -- 85.0 72.0 65% NA 91 29.74 1006.9
6:53 pm CDT S 15.0 10.00 Mostly Cloudy -- 88.0 70.0 55% NA 93 29.71 1006.0
4:53 pm CDT S 18.4 G 26.5 10.00 Mostly Cloudy -- 91.0 69.1 49% NA 96 29.69 1005.2
3:53 pm CDT S 17.3 G 28.8 10.00 Mostly Cloudy -- 89.0 70.0 53% NA 94 29.68 1005.0
2:53 pm CDT S 19.6 G 33.4 10.00 Mostly Cloudy -- 91.0 70.0 50% NA 97 29.70 1005.5
1:53 pm CDT S 15.0 G 29.9 10.00 Partly Cloudy -- 91.0 69.1 49% NA 96 29.70 1005.6
11:53 am CDT SE 8.1 10.00 A Few Clouds -- 87.0 69.1 55% NA 91 30.02 1016.3
10:53 am CDT SE 19.6 G 26.5 7.00 A Few Clouds -- 87.0 72.0 61% NA 93 29.72 1006.1
9:53 am CDT S 15.0 G 21.9 7.00 A Few Clouds -- 85.0 71.1 63% NA 90 29.72 1006.3
8:53 am CDT S 12.7 G 21.9 7.00 Mostly Cloudy -- 82.0 72.0 72% NA 87 29.72 1006.4
7:53 am CDT S 13.8 G 25.3 7.00 Mostly Cloudy -- 80.0 72.0 76% NA 84 29.72 1006.2
6:53 am CDT S 13.8 G 20.7 10.00 Overcast -- 79.0 72.0 79% NA NA 29.70 1005.6
5:53 am CDT S 9.2 G 21.9 10.00 Mostly Cloudy -- 79.0 72.0 79% NA NA 29.68 1004.9
4:53 am CDT S 10.4 10.00 Mostly Cloudy -- 78.0 72.0 82% NA NA 29.67 1004.7

Regional Weather Observation

Houston, Hooks Memorial Airport, TX (KDWH)

A Few Clouds
81.0 F

Houston Executive Airport, TX (KTME)

Fog/Mist
79.0 F

John Dunn Helistop, TX (KMCJ)

Overcast with Haze
81.0 F

Houston, Sugar Land Municipal / Hull Field Airport, TX (KSGR)

Overcast
81.0 F

Houston, Houston Hobby Airport, TX (KHOU)

Mostly Cloudy
82.0 F

Conroe, Montgomery County Airport, TX (KCXO)

Mostly Cloudy
78.0 F

Advertise Here


Advertise Here